BREEZE-KM R/B, 44518

Orbit data source: Space-Track

BREEZE-KM R/B, 44518 is space debris in SSO originally from a launch on Fri, 30 Aug 2019 UTC launched from the Plesetsk Missile And Space Complex (PKMTR). Debris objects in space refer to the collection of defunct objects orbiting the Earth. Examples of debris include non-operational satellites, rocket bodies, and fragments generated from explosions, collisions, or faulty payload assembly.

Loading next visibility...
Identifier
44518, 2019-057B
Orbit
SSO
Country
Flag of CISCIS
Related business
Manufacturer
Khrunichev
Mission
Spacecraft
Bus & Motor
BRIZ, S5.92
Mass
2,370 kg wet, 2,370 kg dry
Launch date (UTC)
2019-08-30 (7 years ago)
Launch vehicle
Unknown
Launch site
Plesetsk Missile And Space Complex (PKMTR)
Object type
Payload
Rocket body
Debris
Shape & HBR
Hex Cyl + 1 Rod, 2.0 m
Radar Cross Section
10.190 m², Large (>1 m²)

Expand to show TLE details & history
Last TLE update: 11 hours ago

TLE from 11 hours ago
0 BREEZE-KM R/B
1 44518U 19057B   26072.97778892  .00000173  00000-0  78180-4 0  9997
2 44518  99.1477 214.1716 0198163 247.1128 110.9022 14.25498504339985
Epoch: 2026-03-13T23:28Z
TLE epoch observation values (Epoch: 2026-03-13T23:28:00.962Z)
Latitude
-0.00011°
Longitude
50.56203°
Altitude
862.969 km
Speed
7.393 km/s
True Right ascension
14h 16m 41s
True Declination
0° 00' 00"
Sunlit
Object was in full shadow at epoch
Visualization orbit readout
Latitude
Unknown
Longitude
Unknown
Altitude
Unknown
Speed
Unknown
Apparent Right ascension
Unknown
Apparent Declination
Unknown
Sunlit
N/A
Visualization observer readout
Local Sidereal Time
14:47:57
Azimuth
Unknown
Elevation
Unknown
Doppler factor
Unknown
Orbital elements
Apogee altitude
946.311 km
Perigee altitude
661.665 km
Semi-major axis
7,182.125 km
Eccentricity
0.01982
Inclination
99.1477°
RAAN
214.1716°
Arg. of periapsis
247.1128°
True anomaly
113.00448°
Mean anomaly
110.9022°
Eccentric anomaly
111.95525°
Mean motion
3.56586 °/min
Orbital period
100.96 mins
BSTAR
0.00007818
Loading maneuver chart data...
Computing Atmospheric mass density...
Loading historical data...
Loading historical data...
Loading historical data...
Loading historical data...
Loading historical data...
Loading historical data...
Loading historical data...
Other satellites on launch #57 in the year 2019 (2019-08-30 UTC)

Documentation

Showing up to 5 results
|